INTELSAT 35E (IS-35E) (42818 NORAD) Tracking and Keplerian Element Data

This shows tracking and keplerian element data for the satellite.

Feedback or suggestion? Click here.




ElementValue
Catalog42818
NameINTELSAT 35E (IS-35E)
Epoch Orbit1009
Epoch Day91.73104793
Epoch Year2020
RAAN208.8375
Inclination0.0223
Eccentricity0.0002278
Argument of Perigee166.993
Mean Anonmoly42.3848
Mean Motion1.00270221
Decay Rate-2.41E-06
L11 42818U 17041A 20091.73104793 -.00000241 00000-0 00000+0 0 9999
L22 42818 0.0223 208.8375 0002278 166.9930 42.3848 1.00270221 10092

Live tracking and technical data element details for INTELSAT 35E (IS-35E) (NORAD 42818). INTELSAT 35E (IS-35E) can be tracked NOW for your location showing map with azimuth and elevation plus other details from your city location.

Track the satellite on the map from your city or location and see movement details for azimuth, elevation, latitude, longitude, range, height, and movement on the map or in text.







IsCatalogInMostPopularTable: catalog: 42818, numindb: 340
Update: records affected: 1



GetName: 42818 INTELSAT 35E (IS-35E)

Hit Count: updated at: Thu, 02 Apr 2020 03:49:39 GMT